Terminal Aerodrome Forecast
Issued by NWS

Home | Current Version | Previous Version | Text Only | Print | Product List | Glossary On
Versions: 1 2 3 4 5 6 7 8 9 10 11 12 13 14 15 16 17 18 19 20 21 22 23 24 25 26 27 28 29 30 31 32 33 34 35 36 37 38 39 40 41 42 43 44 45 46 47
000
FTUS41 KCTP 081734
TAFJST
TAF
KJST 081734Z 0818/0918 15012G20KT P6SM BKN120
     FM082100 15008KT P6SM VCSH BKN060 OVC100
     FM082300 16006KT 1 1/2SM -SN OVC020
     FM090100 16005KT 3/4SM -SN BR OVC009
     FM090400 16005KT 3/4SM -SN BR OVC005=

USA.gov is the U.S. government's official web portal to all federal, state and local government web resources and services.